Temp
15 17 18 17 16 16 15 16 17 18 18 16 17 17 16 11 10 9 9 8 7 6 4 3 2 2 3 2 3 2 2 2 2 2 2 2 1 0 -1 -2 -2 -2 -1 -1
16 17 17 15 15 14 15 15 16 17 16 15 17 17 16 13 11 10 9 8 6 6 5 3 2 2 2 1 1 0 0 1 2 2 0 -2 -2 -3 -3 -3 -3 -2 -1 -1
15 16 14 14 15 15 16 15 16 16 16 17 16 17 15 12 10 7 6 5 5 4 3 3 2 1 1 0 0 0 0 1 -0 -1 -2 -3 -3 -3 -4 -4 -4 -3 -2 -2
15 15 14 15 15 15 14 15 15 15 15 16 16 16 17 15 11 8 7 6 5 4 3 2 1 1 0 -0 -1 1 1 -1 -2 -3 -3 -4 -4 -5 -5 -5 -5 -4 -2 -3
15 14 14 14 15 14 15 15 14 15 15 15 16 15 17 14 14 11 8 6 4 3 2 1 1 -0 -0 -1 -0 0 -0 -2 -2 -3 -4 -4 -5 -5 -5 -6 -6 -5 -4 -2
14 13 13 14 14 14 14 14 14 14 15 14 16 15 17 15 14 12 8 5 3 2 1 1 -0 -1 -1 -1 -0 -0 -1 -2 -3 -3 -3 -5 -5 -6 -6 -6 -6 -6 -5 -2
14 14 14 13 14 14 15 15 14 14 14 14 14 14 15 15 11 10 6 4 3 1 1 0 -1 -2 -2 -1 1 1 -1 -2 -2 -2 -3 -4 -5 -6 -7 -7 -7 -6 -5 -4
13 12 14 14 14 14 14 14 13 11 13 14 15 13 15 10 7 6 4 1 2 1 -0 -2 -0 -2 -3 -0 0 1 -0 -2 -2 -1 -2 -5 -6 -6 -7 -7 -7 -7 -5 -4
12 12 13 13 14 14 14 13 14 12 13 12 14 15 9 8 7 5 4 3 1 0 -1 -1 -2 -3 -2 -1 -0 -0 -0 -1 0 -0 -2 -2 -5 -7 -7 -8 -7 -7 -7 -5
12 11 12 13 13 13 13 13 11 12 9 10 14 13 12 7 8 5 1 1 -1 -1 -2 -2 -2 -2 -2 -1 -1 -0 -2 -1 -0 -1 -1 -2 -3 -6 -6 -6 -7 -8 -7 -5
12 10 12 12 12 13 13 13 12 12 12 10 10 12 11 7 4 3 1 -1 -1 -2 -2 -3 -3 -2 -2 -2 -1 -2 -2 -0 -1 -1 -2 -2 -2 -4 -5 -4 -6 -7 -6 -7
11 11 11 12 13 12 12 12 11 10 10 10 7 9 10 10 8 7 1 -1 -1 -2 -3 -3 -3 -2 -2 -2 -2 -3 -2 -2 -2 -2 -2 -2 -3 -3 -5 -4 -5 -5 -6 -7
10 10 10 11 11 11 11 10 10 10 9 8 8 9 9 8 7 6 1 -2 -2 -3 -3 -3 -3 -3 -3 -3 -3 -3 -3 -2 -2 -3 -3 -3 -3 -2 -5 -5 -4 -4 -5 -7
9 10 9 10 10 11 9 10 10 10 7 8 9 9 11 11 10 8 5 -1 -3 -4 -4 -4 -3 -3 -3 -3 -3 -4 -5 -4 -3 -3 -4 -4 -4 -4 -4 -4 -4 -3 -4 -5
9 8 9 9 10 10 9 9 9 9 9 8 8 9 10 11 11 10 8 -0 -2 -4 -4 -4 -4 -4 -4 -5 -5 -6 -6 -6 -6 -7 -7 -6 -5 -4 -4 -5 -5 -4 -3 -3
8 7 6 5 8 9 8 7 8 8 8 8 9 9 11 10 6 5 3 0 -1 -2 -2 -4 -5 -5 -5 -6 -6 -6 -6 -6 -7 -7 -7 -8 -8 -8 -6 -6 -7 -5 -4 -3
8 8 7 7 9 8 7 7 6 9 10 9 9 10 12 10 8 5 2 1 0 -1 -3 -4 -5 -6 -6 -6 -6 -7 -7 -7 -7 -8 -8 -8 -8 -9 -9 -9 -10 -10 -7 -4
7 7 8 7 8 6 9 10 10 9 10 11 11 11 11 9 4 3 2 1 0 -2 -3 -5 -4 -5 -6 -7 -6 -7 -7 -8 -6 -7 -8 -8 -9 -9 -9 -9 -10 -10 -10 -8
8 7 6 6 8 9 10 10 10 9 9 11 9 10 5 3 2 0 0 0 -1 -2 -4 -5 -5 -5 -5 -6 -7 -6 -5 -7 -6 -6 -6 -7 -7 -8 -10 -10 -11 -11 -11 -11
8 7 6 7 5 6 10 10 8 9 8 7 7 7 5 4 7 6 -1 -1 -2 -4 -5 -5 -6 -7 -7 -8 -8 -7 -6 -6 -6 -7 -7 -7 -8 -7 -8 -11 -11 -12 -11 -12
6 6 5 6 6 8 10 8 7 6 7 6 6 5 5 5 3 0 -1 -3 -4 -4 -5 -6 -7 -6 -7 -8 -8 -8 -9 -7 -8 -9 -9 -8 -8 -10 -10 -10 -12 -12 -12 -12
7 7 6 7 6 5 8 6 7 7 5 4 5 4 3 2 -1 -1 -3 -5 -5 -5 -6 -7 -7 -7 -8 -8 -8 -8 -9 -9 -10 -10 -10 -10 -10 -11 -11 -11 -11 -12 -12 -12
6 8 8 8 9 9 7 8 7 6 6 6 3 3 2 0 -2 -4 -6 -6 -5 -6 -6 -7 -7 -8 -8 -8 -8 -9 -9 -9 -10 -10 -10 -11 -11 -11 -11 -11 -12 -11 -12 -12
8 8 7 7 7 9 8 8 5 4 3 3 2 2 1 -1 -3 -5 -6 -6 -6 -6 -6 -7 -8 -8 -9 -9 -8 -9 -9 -10 -10 -10 -10 -11 -11 -12 -12 -12 -12 -13 -13 -12
8 7 7 6 7 7 7 6 5 4 2 1 0 0 -1 -2 -3 -4 -5 -6 -6 -6 -7 -7 -7 -8 -9 -9 -9 -8 -10 -10 -10 -11 -11 -11 -12 -12 -12 -13 -13 -14 -14 -14
7 7 6 6 7 7 6 5 4 4 1 0 -1 -1 -2 -2 -3 -4 -5 -6 -6 -7 -7 -8 -8 -9 -9 -9 -9 -8 -9 -10 -11 -11 -11 -11 -12 -12 -13 -13 -13 -13 -13 -14
Height
1525 1520 1513 1517 1522 1522 1522 1519 1514 1510 1510 1514 1507 1504 1510 1521 1525 1526 1530 1532 1533 1533 1533 1531 1527 1524 1520 1517 1513 1509 1505 1500 1495 1490 1484 1478 1473 1467 1462 1458 1452 1448 1445 1440
1522 1513 1516 1523 1524 1524 1521 1519 1513 1511 1513 1514 1503 1500 1504 1517 1521 1523 1526 1529 1531 1531 1531 1529 1526 1523 1519 1516 1512 1508 1504 1499 1494 1488 1482 1476 1469 1463 1456 1451 1445 1439 1435 1432
1518 1516 1522 1521 1521 1521 1515 1516 1513 1513 1511 1505 1503 1491 1500 1512 1519 1524 1527 1528 1529 1528 1527 1526 1524 1521 1518 1514 1510 1506 1502 1498 1493 1486 1481 1474 1468 1462 1453 1445 1438 1433 1430 1427
1517 1519 1520 1520 1520 1520 1517 1514 1515 1513 1511 1503 1504 1497 1488 1499 1511 1520 1523 1525 1526 1526 1525 1524 1522 1520 1516 1513 1509 1504 1500 1496 1492 1485 1478 1471 1464 1456 1449 1442 1435 1429 1425 1421
1516 1518 1520 1521 1518 1520 1514 1516 1514 1510 1506 1505 1496 1502 1483 1496 1500 1509 1518 1523 1525 1525 1524 1523 1521 1518 1516 1511 1507 1503 1499 1496 1491 1484 1477 1470 1462 1453 1445 1439 1433 1428 1422 1418
1516 1521 1521 1518 1520 1519 1519 1514 1508 1508 1503 1503 1490 1494 1479 1488 1495 1501 1515 1521 1523 1523 1523 1522 1520 1517 1514 1510 1506 1501 1498 1495 1490 1483 1475 1467 1458 1450 1444 1437 1431 1424 1417 1411
1514 1515 1518 1520 1515 1517 1512 1510 1506 1503 1503 1496 1498 1499 1487 1487 1503 1505 1515 1519 1521 1521 1521 1520 1517 1515 1512 1507 1503 1500 1497 1494 1488 1482 1474 1466 1458 1451 1445 1437 1429 1421 1413 1405
1512 1517 1515 1517 1516 1516 1515 1515 1514 1518 1506 1498 1494 1494 1482 1502 1509 1513 1516 1519 1520 1520 1519 1518 1516 1513 1511 1506 1502 1499 1495 1492 1487 1481 1474 1467 1460 1452 1444 1437 1429 1421 1412 1403
1513 1516 1515 1517 1517 1517 1512 1513 1513 1516 1507 1506 1491 1483 1501 1508 1510 1513 1514 1516 1518 1519 1517 1516 1515 1512 1509 1505 1501 1498 1495 1491 1485 1481 1474 1467 1460 1452 1444 1437 1429 1420 1411 1402
1514 1521 1516 1516 1518 1517 1515 1516 1518 1513 1524 1507 1482 1482 1488 1504 1503 1508 1512 1513 1515 1515 1515 1515 1513 1511 1508 1504 1501 1499 1495 1490 1485 1481 1475 1469 1462 1453 1446 1437 1430 1422 1411 1403
1514 1521 1515 1516 1513 1510 1512 1510 1513 1512 1505 1505 1498 1486 1488 1499 1504 1505 1507 1509 1511 1512 1512 1513 1512 1509 1507 1504 1501 1498 1494 1489 1485 1481 1476 1470 1464 1456 1449 1442 1433 1423 1413 1404
1516 1516 1513 1510 1508 1515 1513 1511 1511 1515 1507 1505 1516 1493 1493 1495 1498 1501 1504 1506 1507 1508 1510 1511 1510 1508 1505 1503 1501 1498 1493 1489 1486 1483 1478 1472 1465 1459 1451 1445 1437 1427 1415 1409
1517 1514 1513 1506 1512 1514 1509 1513 1514 1513 1518 1512 1512 1492 1495 1497 1499 1500 1502 1504 1504 1505 1507 1509 1508 1506 1504 1503 1500 1497 1493 1490 1487 1484 1479 1474 1467 1461 1453 1447 1440 1433 1424 1414
1519 1515 1513 1509 1508 1511 1513 1510 1511 1510 1515 1505 1491 1487 1487 1487 1488 1492 1497 1500 1501 1502 1504 1506 1506 1505 1503 1502 1499 1497 1494 1490 1487 1484 1481 1476 1469 1463 1457 1451 1444 1437 1430 1420
1519 1516 1513 1510 1510 1510 1509 1509 1508 1506 1502 1503 1483 1491 1484 1482 1481 1481 1484 1495 1499 1500 1503 1503 1504 1503 1502 1501 1499 1499 1496 1492 1489 1487 1483 1478 1473 1467 1462 1456 1449 1443 1435 1427
1517 1516 1519 1519 1509 1507 1506 1507 1504 1500 1497 1494 1487 1479 1480 1478 1481 1481 1484 1490 1494 1497 1500 1502 1503 1503 1502 1501 1500 1499 1496 1492 1490 1488 1485 1481 1477 1471 1464 1460 1454 1447 1439 1433
1514 1512 1512 1502 1498 1501 1498 1495 1495 1489 1485 1485 1480 1473 1471 1475 1478 1480 1482 1487 1491 1495 1498 1500 1500 1501 1500 1500 1499 1497 1496 1493 1491 1489 1486 1482 1478 1473 1468 1464 1460 1453 1445 1439
1509 1510 1508 1501 1501 1501 1483 1485 1484 1482 1479 1477 1472 1470 1468 1471 1478 1479 1481 1484 1489 1493 1496 1497 1498 1499 1499 1499 1498 1497 1495 1494 1492 1489 1487 1483 1480 1476 1471 1467 1463 1459 1453 1447
1506 1506 1505 1503 1490 1480 1477 1477 1479 1477 1472 1470 1473 1471 1476 1478 1479 1481 1482 1484 1488 1492 1495 1496 1497 1497 1497 1497 1497 1496 1495 1495 1492 1490 1487 1484 1480 1477 1474 1469 1466 1464 1459 1454
1500 1504 1503 1496 1496 1483 1471 1474 1481 1479 1471 1476 1477 1475 1477 1479 1469 1470 1481 1484 1488 1491 1494 1496 1497 1497 1498 1498 1497 1496 1496 1495 1493 1491 1488 1485 1482 1479 1475 1473 1469 1467 1464 1461
1496 1497 1498 1491 1488 1474 1471 1478 1480 1480 1472 1475 1475 1476 1477 1477 1478 1478 1480 1484 1488 1491 1493 1494 1496 1497 1497 1497 1498 1498 1498 1496 1494 1493 1491 1487 1484 1482 1479 1476 1474 1470 1467 1464
1481 1483 1487 1484 1485 1482 1472 1478 1476 1473 1474 1474 1475 1474 1473 1476 1478 1479 1482 1483 1487 1490 1491 1493 1495 1496 1496 1497 1498 1499 1499 1498 1496 1494 1492 1489 1487 1485 1483 1480 1478 1474 1471 1469
1481 1474 1471 1472 1467 1469 1473 1471 1471 1469 1470 1470 1472 1472 1471 1474 1476 1477 1479 1483 1487 1490 1491 1493 1494 1494 1496 1497 1498 1499 1498 1498 1497 1495 1494 1491 1489 1487 1485 1483 1480 1478 1475 1471
1473 1474 1475 1475 1470 1467 1467 1467 1468 1467 1466 1465 1466 1468 1468 1470 1473 1476 1479 1483 1487 1489 1490 1492 1493 1495 1496 1496 1497 1498 1498 1498 1497 1496 1494 1493 1490 1489 1487 1485 1483 1480 1477 1475
1469 1472 1471 1468 1467 1465 1464 1463 1463 1463 1461 1461 1463 1464 1465 1468 1471 1474 1478 1482 1485 1487 1488 1491 1493 1494 1495 1496 1497 1497 1498 1498 1498 1497 1495 1494 1492 1490 1489 1485 1483 1482 1478 1476
1467 1464 1466 1460 1460 1460 1459 1459 1458 1458 1458 1459 1460 1462 1464 1467 1470 1474 1477 1480 1483 1485 1487 1489 1492 1494 1495 1496 1496 1497 1497 1498 1498 1498 1496 1494 1493 1491 1489 1488 1487 1482 1480 1478
Wind_Speed
1 5 9 9 3 4 5 8 11 11 11 10 10 9 8 12 13 11 8 4 1 4 5 8 11 13 14 15 17 19 21 23 25 25 27 27 27 26 24 22 23 22 23 25
6 9 3 0 5 6 8 10 11 8 3 5 11 11 8 11 10 9 7 4 1 3 5 9 11 12 14 15 16 18 20 23 25 26 25 25 26 26 25 24 24 25 24 25
8 2 1 5 2 5 7 9 12 11 9 13 10 16 12 9 8 8 7 4 0 3 6 8 11 13 14 16 18 19 21 22 24 27 24 26 24 23 24 27 27 24 25 26
4 2 2 3 7 5 9 4 6 8 9 7 5 5 9 12 10 11 10 7 2 2 5 7 10 12 14 16 18 19 20 22 22 26 26 27 26 28 28 27 28 29 25 24
5 4 4 6 4 3 6 7 8 9 9 8 11 7 5 5 10 12 13 7 2 2 5 7 9 11 13 15 18 20 20 20 23 25 26 27 27 28 31 30 28 26 24 24
5 1 4 2 2 3 7 7 7 7 8 9 4 6 4 4 3 7 12 7 3 0 3 5 8 10 12 14 17 19 20 20 23 27 29 29 31 32 31 30 28 26 26 26
4 4 3 3 4 6 9 6 5 5 5 7 3 8 12 2 3 4 11 8 4 1 2 4 8 10 12 15 18 18 19 20 23 26 29 31 32 29 28 26 27 28 28 29
3 5 8 4 2 4 2 5 5 6 6 11 14 8 2 6 7 7 9 7 4 1 1 4 7 9 11 15 17 18 19 20 22 26 29 28 30 28 26 25 25 26 28 28
4 3 4 3 3 2 2 4 5 9 14 12 9 6 4 3 5 7 8 8 5 2 1 4 5 7 10 13 16 17 18 19 22 23 26 30 29 28 27 25 25 25 27 24
2 3 3 2 3 6 5 7 6 5 5 9 9 11 8 4 8 10 10 11 7 4 2 3 5 7 9 12 14 14 15 19 21 21 23 26 29 28 29 28 27 26 29 26
5 3 5 4 7 8 8 9 6 7 10 11 13 5 3 4 6 11 13 16 11 8 5 3 3 5 8 10 11 13 15 17 19 22 22 23 26 28 29 30 29 29 32 33
2 2 8 11 8 6 9 11 9 6 7 5 5 12 0 3 5 6 11 16 13 9 7 4 1 4 6 8 10 12 14 16 18 20 22 23 23 24 28 31 33 33 36 35
4 4 5 6 6 6 6 2 3 6 6 14 13 10 2 3 6 7 11 15 15 11 8 5 1 2 4 6 8 11 13 15 16 19 22 24 26 26 27 28 31 32 34 39
1 7 9 10 7 6 11 13 12 13 8 15 19 25 20 21 18 16 14 16 15 13 10 6 3 0 3 6 8 11 12 14 15 17 19 23 26 27 29 30 30 30 32 37
4 8 11 13 14 14 15 15 17 19 20 20 26 24 25 24 23 26 14 18 16 14 11 7 5 2 2 5 7 8 10 12 13 14 16 20 22 23 26 28 31 29 32 35
5 6 3 6 14 16 18 14 19 23 22 23 27 28 21 22 7 4 13 19 18 14 12 9 6 3 2 4 5 7 9 11 12 14 15 16 18 20 23 26 29 32 32 34
7 7 6 11 8 10 14 15 17 16 15 14 17 16 12 10 8 8 15 18 16 15 13 11 9 5 3 3 5 6 8 10 11 13 15 17 18 19 21 21 23 27 32 33
9 11 8 8 10 11 1 2 10 14 18 19 19 20 19 6 1 7 12 16 15 15 14 11 9 7 4 3 4 5 7 8 10 12 14 16 18 19 20 21 22 24 26 31
18 12 7 7 10 15 18 10 6 11 13 12 9 10 4 4 7 6 11 12 14 14 12 10 8 7 5 4 4 5 5 7 10 12 14 15 17 18 20 22 22 21 22 25
14 14 9 9 7 10 2 2 4 6 14 7 7 6 2 6 6 4 15 14 15 14 12 11 9 8 6 4 4 4 5 7 10 12 14 14 15 16 18 19 20 20 19 20
7 9 14 13 11 9 7 3 3 6 2 3 5 4 2 6 4 8 16 16 15 14 13 12 10 8 7 5 5 5 5 7 9 9 10 13 14 15 16 17 18 19 20 19
10 7 6 8 9 11 5 6 5 4 2 5 11 6 5 7 6 15 16 18 17 15 13 11 10 9 7 6 6 5 4 5 6 7 10 11 12 12 12 14 16 18 18 19
9 10 6 6 5 3 6 14 12 8 16 18 15 9 5 10 15 19 19 19 16 14 12 11 10 9 8 7 6 5 4 4 5 7 8 10 11 12 11 13 14 15 16 17
8 10 7 9 8 17 21 21 17 13 15 12 11 10 11 15 17 18 20 18 16 14 12 11 11 10 9 7 7 6 5 5 5 6 7 8 10 11 12 11 12 14 16 15
8 5 8 13 18 22 18 20 17 11 14 10 9 9 12 14 18 20 20 18 16 14 13 12 11 10 9 8 7 6 5 4 5 5 6 7 8 9 9 12 14 12 15 15
17 15 11 11 14 17 19 14 11 14 10 9 11 11 12 15 18 20 19 18 16 15 14 12 11 11 10 9 8 6 5 5 4 4 5 6 7 7 7 7 7 13 13 13
Wind_Direction
272 278 281 333 318 324 292 272 280 287 282 287 273 285 182 188 202 201 211 225 292 355 359 359 360 360 1 358 358 358 354 353 351 346 340 335 330 325 319 312 305 303 297 291
242 267 3 288 296 272 257 277 284 283 353 256 271 272 178 196 217 216 215 216 278 353 358 359 1 2 2 359 356 356 355 353 352 347 342 335 329 325 319 318 311 307 302 294
260 64 247 295 182 250 262 278 286 282 310 261 281 262 169 198 200 194 200 198 233 357 356 357 0 1 1 357 357 354 353 353 351 347 341 338 333 328 328 324 321 314 308 303
258 85 220 243 283 276 289 14 295 282 292 290 3 289 194 170 195 208 203 203 211 348 355 357 358 356 356 354 354 355 355 353 348 348 346 342 339 333 332 328 322 320 316 311
91 172 215 265 305 268 314 296 281 285 275 300 257 258 113 161 215 208 202 195 181 5 353 352 352 351 352 354 354 354 354 352 349 352 350 347 342 338 335 333 324 321 319 315
269 229 262 268 283 231 320 277 250 257 268 258 324 277 311 173 220 164 167 182 174 47 360 354 352 352 351 356 355 356 355 353 352 356 355 352 349 343 339 337 333 328 325 328
195 201 173 224 214 208 306 297 284 251 215 268 71 288 258 111 105 161 167 171 173 174 359 356 353 352 354 358 358 358 358 354 357 358 358 357 354 351 344 338 336 334 331 333
249 180 173 144 9 319 341 325 285 291 292 299 307 266 40 65 121 128 149 166 177 185 5 353 345 358 355 359 359 4 4 358 358 3 2 1 358 356 353 351 347 348 344 339
202 201 147 182 298 278 114 269 9 285 276 273 257 262 168 149 166 177 184 187 198 216 322 329 348 359 358 1 5 9 7 5 5 4 4 7 6 2 360 359 2 4 0 352
117 244 189 163 229 226 265 341 268 221 277 281 279 291 244 202 224 204 203 204 205 204 208 286 345 1 3 3 8 11 14 13 12 8 9 11 14 14 10 15 14 12 23 12
155 203 161 223 217 266 267 272 240 281 266 275 291 284 95 197 218 207 202 203 205 211 222 252 329 360 8 7 10 17 20 19 17 19 17 17 19 26 24 26 29 33 36 29
116 250 254 255 288 291 265 269 256 246 266 251 267 278 197 218 193 208 197 205 197 201 209 227 304 359 9 14 17 23 30 30 27 25 27 26 22 26 32 34 36 42 47 42
156 206 262 220 196 206 216 157 303 284 294 266 274 268 183 227 242 243 204 200 196 195 197 209 226 355 13 18 21 23 30 34 34 34 34 34 33 30 35 36 37 37 46 49
107 245 249 264 306 296 268 269 275 274 264 274 257 278 275 280 275 254 229 202 189 189 191 198 202 117 23 21 25 25 23 25 30 30 32 38 38 36 38 39 40 37 39 45
260 257 254 260 270 265 264 264 266 265 258 256 278 276 288 291 294 290 255 192 182 180 186 192 195 163 54 32 31 27 26 29 28 26 24 23 30 36 38 43 47 46 49 48
205 248 262 257 259 263 268 262 260 257 265 266 271 279 279 283 293 285 179 181 182 182 185 180 169 152 89 52 42 33 32 34 33 31 27 26 26 27 30 32 37 44 47 53
228 243 249 273 262 288 274 243 241 256 257 264 268 281 299 291 265 208 175 182 182 182 181 177 177 169 133 72 52 43 40 38 41 35 31 29 30 31 33 33 31 35 42 47
236 238 251 274 288 260 107 275 271 279 286 283 280 267 286 314 225 168 176 174 175 177 176 181 183 171 141 96 68 55 53 44 44 46 38 37 34 35 36 38 36 36 39 45
226 239 256 250 253 273 285 278 282 288 274 319 316 328 355 135 139 142 171 172 173 171 169 173 180 170 148 123 88 69 64 57 46 42 42 40 39 39 39 41 41 38 41 42
216 230 234 236 263 273 318 333 269 286 276 46 2 356 240 197 247 122 171 162 158 160 162 161 160 150 141 129 104 80 70 61 54 41 39 38 37 40 43 38 39 40 42 42
178 209 226 238 256 265 289 356 178 251 2 20 9 357 232 241 352 143 157 156 157 159 158 159 154 153 147 135 118 95 72 57 54 47 39 36 40 35 34 37 36 36 37 39
202 210 204 237 249 267 122 143 241 360 2 332 318 250 213 215 159 154 158 157 158 159 158 156 152 151 143 134 124 114 96 76 59 49 42 42 39 41 35 29 25 28 32 31
244 229 260 233 241 20 226 265 271 251 277 293 284 234 193 191 173 168 165 161 161 161 159 155 153 148 149 140 136 133 119 92 72 54 47 43 42 42 39 33 33 27 25 28
234 255 246 279 253 267 280 276 262 269 277 287 232 250 198 180 174 169 164 164 163 162 160 159 154 151 147 151 147 142 125 101 80 64 47 46 43 45 42 42 36 35 32 29
261 269 257 269 272 282 284 270 267 267 278 255 235 205 186 179 177 173 170 169 168 166 163 160 159 156 155 156 150 141 127 105 87 65 52 45 42 43 38 35 46 43 37 39
249 247 244 256 277 294 288 290 266 276 249 216 197 183 179 179 177 174 173 172 170 167 165 162 162 160 163 162 153 138 126 120 103 71 52 49 36 34 33 34 22 14 29 26